When you browse on this site, cookies collect data to enhance your experience and personalize the content and advertising you see.
Visit our Privacy Policy to learn more. By continuing to use the site, you agree to this use of cookies and data.
  • In Portugal
  • List of Countries
  • For 7 days
  • Water Temperature
  • Satellite Maps
  • Weather Map
  • Weather Widgets
  • user-avatar
    Login

    Hourly Weather Sucre

    Today, 16 January, Wednesday

    Time Temperature Precipitation Wind Pressure Humidity
    00:00 +16°C° 0.1 mm 1 mps 543 mmHg 72%
    01:00 +16°C° 0.1 mm 1 mps 543 mmHg 76%
    02:00 +15°C° 0 mm 1 mps 542 mmHg 81%
    03:00 +15°C° 0.1 mm 1 mps 542 mmHg 83%
    04:00 +14°C° 0.1 mm 1 mps 542 mmHg 85%
    05:00 +14°C° 0.1 mm 1 mps 542 mmHg 87%
    06:00 +14°C° 0 mm 2 mps 542 mmHg 86%
    07:00 +15°C° 0 mm 2 mps 543 mmHg 84%
    08:00 +15°C° 0 mm 2 mps 543 mmHg 82%
    09:00 +16°C° 0.1 mm 2 mps 543 mmHg 73%
    10:00 +18°C° 0.1 mm 3 mps 544 mmHg 64%
    11:00 +20°C° 0.1 mm 3 mps 545 mmHg 55%
    12:00 +21°C° 0.2 mm 4 mps 545 mmHg 51%
    13:00 +22°C° 0.2 mm 4 mps 545 mmHg 48%
    14:00 +23°C° 0.2 mm 5 mps 545 mmHg 44%
    15:00 +22°C° 0.2 mm 5 mps 544 mmHg 45%
    16:00 +22°C° 0.2 mm 6 mps 544 mmHg 47%
    17:00 +22°C° 0.2 mm 6 mps 543 mmHg 48%
    18:00 +20°C° 0 mm 5 mps 543 mmHg 53%
    19:00 +19°C° 0 mm 3 mps 543 mmHg 57%
    20:00 +18°C° 0 mm 2 mps 543 mmHg 62%
    21:00 +18°C° 0 mm 2 mps 543 mmHg 65%
    22:00 +18°C° 0 mm 1 mps 543 mmHg 68%
    23:00 +16°C° 0 mm 1 mps 543 mmHg 71%

    Tomorrow, 17 January, Thursday

    Time Temperature Precipitation Wind Pressure Humidity
    00:00 +16°C° 0 mm 1 mps 543 mmHg 74%
    01:00 +15°C° 0 mm 1 mps 542 mmHg 77%
    02:00 +15°C° 0 mm 1 mps 541 mmHg 80%
    03:00 +14°C° 0 mm 1 mps 541 mmHg 82%
    04:00 +14°C° 0 mm 1 mps 541 mmHg 84%
    05:00 +14°C° 0 mm 1 mps 541 mmHg 85%
    06:00 +15°C° 0 mm 1 mps 542 mmHg 82%
    07:00 +15°C° 0 mm 2 mps 542 mmHg 78%
    08:00 +16°C° 0 mm 3 mps 543 mmHg 74%
    09:00 +17°C° 0 mm 3 mps 543 mmHg 66%
    10:00 +19°C° 0 mm 3 mps 544 mmHg 58%
    11:00 +21°C° 0 mm 3 mps 544 mmHg 49%
    12:00 +22°C° 0.1 mm 3 mps 544 mmHg 46%
    13:00 +22°C° 0.1 mm 4 mps 544 mmHg 42%
    14:00 +23°C° 0.1 mm 4 mps 544 mmHg 38%
    15:00 +23°C° 0 mm 4 mps 544 mmHg 39%
    16:00 +23°C° 0 mm 5 mps 543 mmHg 41%
    17:00 +23°C° 0 mm 6 mps 543 mmHg 42%
    18:00 +21°C° 0.1 mm 5 mps 543 mmHg 49%
    19:00 +20°C° 0.1 mm 4 mps 543 mmHg 56%
    20:00 +18°C° 0.1 mm 3 mps 543 mmHg 62%
    21:00 +18°C° 0.7 mm 2 mps 543 mmHg 65%
    22:00 +17°C° 0.7 mm 2 mps 544 mmHg 69%
    23:00 +16°C° 0.7 mm 1 mps 544 mmHg 72%

    Day after tomorrow, 18 January, Friday

    Time Temperature Precipitation Wind Pressure Humidity
    00:00 +16°C° 0.2 mm 1 mps 543 mmHg 74%
    01:00 +16°C° 0.2 mm 1 mps 543 mmHg 76%
    02:00 +15°C° 0.2 mm 1 mps 542 mmHg 77%
    03:00 +15°C° 0.1 mm 1 mps 542 mmHg 79%
    04:00 +15°C° 0.1 mm 1 mps 542 mmHg 80%
    05:00 +14°C° 0.1 mm 1 mps 542 mmHg 81%
    06:00 +15°C° 0.2 mm 1 mps 543 mmHg 79%
    07:00 +15°C° 0.2 mm 1 mps 543 mmHg 77%
    08:00 +15°C° 0.2 mm 1 mps 544 mmHg 74%
    09:00 +16°C° 0.5 mm 2 mps 544 mmHg 70%
    10:00 +17°C° 0.5 mm 2 mps 544 mmHg 66%
    11:00 +18°C° 0.5 mm 2 mps 545 mmHg 61%
    12:00 +18°C° 0.6 mm 3 mps 545 mmHg 59%
    13:00 +19°C° 0.6 mm 3 mps 544 mmHg 56%
    14:00 +19°C° 0.6 mm 4 mps 544 mmHg 54%
    15:00 +19°C° 0.4 mm 4 mps 544 mmHg 55%
    16:00 +19°C° 0.4 mm 4 mps 543 mmHg 57%
    17:00 +18°C° 0.4 mm 4 mps 543 mmHg 58%
    18:00 +17°C° 0.3 mm 3 mps 543 mmHg 64%
    19:00 +16°C° 0.3 mm 3 mps 543 mmHg 70%
    20:00 +15°C° 0.3 mm 2 mps 543 mmHg 76%
    21:00 +15°C° 0.1 mm 2 mps 543 mmHg 78%
    22:00 +15°C° 0.1 mm 2 mps 543 mmHg 80%
    23:00 +14°C° 0.1 mm 1 mps 543 mmHg 82%

    19 January, Saturday

    Time Temperature Precipitation Wind Pressure Humidity
    00:00 +14°C° 0 mm 1 mps 543 mmHg 84%
    01:00 +14°C° 0 mm 1 mps 542 mmHg 86%
    02:00 +13°C° 0 mm 1 mps 542 mmHg 87%
    03:00 +13°C° 0.1 mm 1 mps 542 mmHg 87%
    04:00 +13°C° 0.1 mm 1 mps 542 mmHg 86%
    05:00 +13°C° 0.1 mm 2 mps 542 mmHg 86%
    06:00 +13°C° 0.1 mm 1 mps 542 mmHg 84%
    07:00 +14°C° 0.1 mm 1 mps 543 mmHg 82%
    08:00 +14°C° 0.1 mm 1 mps 544 mmHg 79%
    09:00 +15°C° 0.1 mm 2 mps 544 mmHg 73%
    10:00 +17°C° 0.1 mm 2 mps 545 mmHg 66%
    11:00 +18°C° 0.1 mm 2 mps 545 mmHg 60%
    12:00 +19°C° 0.1 mm 3 mps 545 mmHg 58%
    13:00 +19°C° 0.1 mm 3 mps 545 mmHg 56%
    14:00 +20°C° 0.1 mm 4 mps 545 mmHg 54%
    15:00 +19°C° 0.3 mm 4 mps 544 mmHg 57%
    16:00 +19°C° 0.3 mm 3 mps 543 mmHg 60%
    17:00 +18°C° 0.3 mm 3 mps 543 mmHg 64%
    18:00 +17°C° 0.2 mm 3 mps 543 mmHg 68%
    19:00 +16°C° 0.2 mm 2 mps 543 mmHg 72%
    20:00 +15°C° 0.2 mm 2 mps 543 mmHg 76%
    21:00 +15°C° 0.1 mm 2 mps 543 mmHg 78%
    22:00 +15°C° 0.1 mm 2 mps 543 mmHg 81%
    23:00 +14°C° 0.1 mm 2 mps 543 mmHg 83%

    20 January, Sunday

    Time Temperature Precipitation Wind Pressure Humidity
    00:00 +14°C° 0 mm 1 mps 543 mmHg 85%
    01:00 +14°C° 0 mm 1 mps 542 mmHg 87%
    02:00 +13°C° 0 mm 1 mps 542 mmHg 89%
    03:00 +13°C° 0 mm 1 mps 542 mmHg 88%
    04:00 +13°C° 0 mm 1 mps 542 mmHg 88%
    05:00 +13°C° 0 mm 1 mps 542 mmHg 88%
    06:00 +13°C° 0 mm 1 mps 542 mmHg 86%
    07:00 +14°C° 0 mm 1 mps 543 mmHg 83%
    08:00 +14°C° 0 mm 1 mps 543 mmHg 81%
    09:00 +15°C° 0 mm 2 mps 543 mmHg 76%
    10:00 +16°C° 0 mm 2 mps 543 mmHg 71%
    11:00 +16°C° 0 mm 2 mps 544 mmHg 66%
    12:00 +18°C° 0 mm 2 mps 544 mmHg 59%
    13:00 +20°C° 0 mm 3 mps 544 mmHg 51%
    14:00 +22°C° 0 mm 3 mps 544 mmHg 44%
    15:00 +21°C° 0 mm 4 mps 544 mmHg 46%
    16:00 +21°C° 0 mm 5 mps 543 mmHg 47%
    17:00 +21°C° 0 mm 5 mps 543 mmHg 49%
    18:00 +20°C° 0.1 mm 4 mps 543 mmHg 56%
    19:00 +18°C° 0.1 mm 3 mps 543 mmHg 63%
    20:00 +17°C° 0.1 mm 2 mps 542 mmHg 70%
    21:00 +16°C° 0.2 mm 2 mps 543 mmHg 74%
    22:00 +16°C° 0.2 mm 1 mps 543 mmHg 77%
    23:00 +15°C° 0.2 mm 1 mps 543 mmHg 81%

    21 January, Monday

    Time Temperature Precipitation Wind Pressure Humidity
    00:00 +15°C° 0.1 mm 1 mps 542 mmHg 83%
    01:00 +14°C° 0.1 mm 1 mps 542 mmHg 85%
    02:00 +14°C° 0.1 mm 1 mps 541 mmHg 88%
    03:00 +14°C° 0 mm 1 mps 541 mmHg 89%
    04:00 +14°C° 0 mm 1 mps 541 mmHg 90%
    05:00 +13°C° 0 mm 1 mps 541 mmHg 91%
    06:00 +14°C° 0 mm 1 mps 541 mmHg 87%
    07:00 +14°C° 0 mm 1 mps 542 mmHg 83%
    08:00 +15°C° 0 mm 1 mps 542 mmHg 79%
    09:00 +18°C° 0 mm 1 mps 543 mmHg 69%
    10:00 +19°C° 0 mm 2 mps 543 mmHg 59%
    11:00 +20°C° 0 mm 2 mps 544 mmHg 49%
    12:00 +22°C° 0 mm 3 mps 544 mmHg 44%
    13:00 +23°C° 0 mm 4 mps 544 mmHg 40%
    14:00 +25°C° 0 mm 4 mps 544 mmHg 35%
    15:00 +25°C° 0 mm 5 mps 543 mmHg 37%
    16:00 +23°C° 0 mm 5 mps 543 mmHg 39%
    17:00 +23°C° 0 mm 5 mps 543 mmHg 40%
    18:00 +21°C° 0.1 mm 5 mps 543 mmHg 47%
    19:00 +20°C° 0.1 mm 4 mps 543 mmHg 54%
    20:00 +19°C° 0.1 mm 3 mps 542 mmHg 61%
    21:00 +18°C° 0.3 mm 2 mps 543 mmHg 65%
    22:00 +17°C° 0.3 mm 2 mps 543 mmHg 69%
    23:00 +16°C° 0.3 mm 1 mps 543 mmHg 74%
    Show more